Regional Weather Roundup
Issued by NWS

Home | Current Version | Previous Version | Text Only | Print | Product List | Glossary Off
Versions: 1 2 3 4 5 6 7 8 9 10 11 12 13 14 15 16 17 18 19 20 21 22 23 24 25 26 27 28 29 30 31 32 33 34 35 36 37 38 39 40 41 42 43 44 45 46 47 48 49 50

000
ASUS43 KMPX 250901
RWRMN
WEATHER ROUNDUP FOR MINNESOTA
NATIONAL WEATHER SERVICE TWIN CITIES/CHANHASSEN MN
400 AM CDT SAT APR 25 2015


NOTE: "FAIR" INDICATES FEW OR NO CLOUDS BELOW 12,000 FEET WITH NO
SIGNIFICANT WEATHER AND/OR OBSTRUCTIONS TO VISIBILITY. N/A MEANS
CURRENT SKY AND/OR WEATHER CONDITIONS ARE NOT AVAILABLE.

MNZ060>063-068>070-251000-
   Twin Cities Metro

CITY           SKY/WX    TMP DP  RH WIND       PRES   REMARKS
TWIN CITIES    CLOUDY    43  38  82 E14       29.81S
ST PAUL        CLOUDY    44  38  79 SE13      29.83S
CRYSTAL        CLOUDY    45  38  76 E9        29.80S
BLAINE         CLOUDY    45  39  81 E14       29.81S
LAKEVILLE      CLOUDY    41  37  87 E13       29.79F
EDEN PRAIRIE   CLOUDY    44  38  79 E10       29.78F
SOUTH ST PAUL  CLOUDY    44  38  80 E10G18    29.81F
LAKE ELMO      CLOUDY    43  37  81 E7        29.83F
$$
MNZ001>005-007-008-013>017-022>024-027-028-251000-
   Northwest Minnesota

CITY           SKY/WX    TMP DP  RH WIND       PRES   REMARKS
BEMIDJI        CLOUDY    38  28  65 E8        29.86S
HALLOCK        CLOUDY    43  32  65 E9        29.85S
ROSEAU         CLOUDY    41  30  65 E7        29.88S
WARROAD        CLOUDY    37  30  75 E7        29.90S
THIEF RVR FALL CLOUDY    43  30  61 E10       29.85R
CROOKSTON      CLOUDY    43  32  65 E10       29.84R
FOSSTON        CLOUDY    39  30  70 E8        29.84S
DETROIT LAKES  CLOUDY    41  34  75 E12G17    29.81R
MOORHEAD       CLOUDY    43  36  75 E7        29.81R
PARK RAPIDS    CLOUDY    41  31  67 E9        29.83R
MAHNOMEN       CLOUDY    41  33  73 E9        29.81S
$$
MNZ006-009>011-018-025>026-251000-
   North Central Minnesota

CITY           SKY/WX    TMP DP  RH WIND       PRES   REMARKS
BAUDETTE       CLOUDY    39  23  52 SE12      29.90R
FLAG ISLAND    CLOUDY    39  27  60 E7        29.91S
INTL FALLS     CLOUDY    37  19  48 E8        29.93S
WASKISH        CLOUDY    37  27  65 E3        29.89S
BIG FORK       MOCLDY    37  19  48 E5        29.91R
LONGVILLE      CLOUDY    37  27  65 E6        29.86R
GRAND RAPIDS   CLOUDY    37  21  52 E6        29.88S
CRANE LAKE     CLOUDY    36  18  48 CALM      29.97S
ORR            CLOUDY    36  16  44 CALM      29.91S
COOK           CLOUDY    36  18  48 E5        29.93S
WALKER         CLOUDY    38  28  69 E8        29.85S
$$
MNZ012-019>021-037-251000-
   Northeast Minnesota

CITY           SKY/WX    TMP DP  RH WIND       PRES   REMARKS
DULUTH         CLOUDY    35  23  61 E9        29.90S WCI  28
ELY            CLOUDY    36  16  44 E3        29.95S
HIBBING        CLOUDY    37  17  44 E7        29.90F
EVELETH        CLOUDY    36  16  44 E7        29.92S
DULUTH HARBOR  CLOUDY    36  32  87 NE23      29.94S
TWO HARBORS    CLOUDY    37  25  60 NE12      29.92S
SILVER BAY     CLOUDY    36  21  55 NE8       29.93F
GRAND MARAIS     N/A     38   9  30 NE10      30.01R
G MARAIS ARPRT CLOUDY    30   5  34 NE9       29.97S WCI  22
$$
MNZ029>031-032-039>041-046>048-054>057-064-251000-
   West Central Minnesota

CITY           SKY/WX    TMP DP  RH WIND       PRES   REMARKS
FERGUS FALLS   CLOUDY    43  39  87 E9        29.79S
WHEATON        CLOUDY    39  39 100 E13       29.77R FOG
MORRIS         CLOUDY    43  43 100 E15       29.74S FOG
ALEXANDRIA     LGT RAIN  41  40  96 E12       29.78S FOG
ELBOW LAKE     CLOUDY    42  41  97 E14       29.76R FOG
WADENA         CLOUDY    39  34  81 E13G21    29.80S
GLENWOOD       DRIZZLE   43  41  93 E13       29.78S
APPLETON       CLOUDY    45  41  87 E18       29.73F FOG
BENSON         CLOUDY    43  41  93 SE10G17   29.75F FOG
ORTONVILLE     CLOUDY    43  39  87 E14       29.72S FOG
MADISON        CLOUDY    45  43  93 E16       29.72S FOG
WILLMAR        MIX PCPN  45  43  93 E14       29.77S
$$
MNZ033>034-036-042>043-049>051-058-059-251000-
   Central Minnesota

CITY           SKY/WX    TMP DP  RH WIND       PRES   REMARKS
ST CLOUD       CLOUDY    43  38  82 E7        29.81R
SAUK CENTRE    CLOUDY    41  40  98 E10       29.79S FOG
PAYNESVILLE    CLOUDY    39  39 100 NE10      29.79S FOG
AITKIN         CLOUDY    37  28  70 E7        29.85S
PINE RIVER     CLOUDY    37  30  75 E7        29.88S
BRAINERD       CLOUDY    38  31  76 E6        29.84F
STAPLES        CLOUDY    39  32  75 E9        29.82S
LONG PRAIRIE   CLOUDY    39  39 100 NE9       29.80S FOG
LITTLE FALLS   CLOUDY    41  32  70 E6        29.82S
LITCHFIELD     CLOUDY    43  43 100 E10G16    29.78S FOG
BUFFALO        CLOUDY    43  37  80 E10       29.81S
MAPLE LAKE     CLOUDY    44  40  85 E9        29.80F
$$
MNZ037-044-045-052-053-251000-
   East Central Minnesota

CITY           SKY/WX    TMP DP  RH WIND       PRES   REMARKS
PRINCETON      CLOUDY    45  37  76 E9G17     29.83R
MORA           CLOUDY    39  32  75 E5        29.86S
CAMBRIDGE      MOCLDY    46  36  66 E7        29.82S
RUSH CITY      CLOUDY    44  33  65 E5        29.85S
MOOSE LAKE     CLOUDY    34  30  86 CALM      29.88R
HINCKLEY       CLOUDY    41  32  70 NE7       29.86S
CLOQUET        CLOUDY    36  25  64 E8        29.90R
MCGREGOR       CLOUDY    36  30  80 E8        29.88S
$$
MNZ071>073-080-081-089-090-097-098-251000-
   Southwest Minnesota

CITY           SKY/WX    TMP DP  RH WIND       PRES   REMARKS
MONTEVIDEO     CLOUDY    43  43 100 SE13      29.74S FOG
GRANITE FALLS  CLOUDY    43  40  87 E13       29.74S
CANBY          LGT RAIN  43  41  94 E15       29.72S
MARSHALL       CLOUDY    43  37  81 E13       29.70S
REDWOOD FALLS  CLOUDY    45  40  82 E8        29.73S
OLIVIA         CLOUDY    41  36  81 E10       29.74S
PIPESTONE      CLOUDY    45  43  93 E14G21    29.64S
WINDOM         CLOUDY    45  39  81 E15       29.69F
WORTHINGTON    CLOUDY    45  37  76 E15       29.67S
JACKSON        CLOUDY    43  37  81 E14       29.68F
TRACY          CLOUDY    44  41  88 SE14      29.69S
SLAYTON        CLOUDY    43  42  97 E14       29.68S
$$
MNZ065>067-074>077-082>085-091>093-251000-
   South Central Minnesota

CITY           SKY/WX    TMP DP  RH WIND       PRES   REMARKS
MANKATO        CLOUDY    45  36  70 E15       29.74S
NEW ULM        CLOUDY    45  39  81 E13       29.73S
ST JAMES       CLOUDY    45  39  81 E13       29.72S
FAIRMONT       CLOUDY    43  19  39 E12       29.69F
GLENCOE        CLOUDY    44  40  88 E12       29.77S
FARIBAULT      CLOUDY    43  39  87 E12G20    29.78R
OWATONNA       CLOUDY    43  37  81 E14       29.75S
WASECA         CLOUDY    43  37  81 E18       29.75F
ALBERT LEA     CLOUDY    43  39  87 E13G20    29.72S
$$
MNZ078>079-086>088-094>096-251000-
   Southeast Minnesota

CITY           SKY/WX    TMP DP  RH WIND       PRES   REMARKS
ROCHESTER      CLOUDY    40  36  86 E18G24    29.77S
RED WING       CLOUDY    43  37  81 E9G17     29.81R
STANTON        CLOUDY    43  38  83 E13       29.78S
DODGE CENTER   CLOUDY    41  37  87 E17       29.76S
AUSTIN         CLOUDY    41  37  87 E16       29.72F
PRESTON        CLOUDY    39  34  81 E12G21    29.77F
$$
ABBREVIATIONS USED IN REMARKS
   TC - TEMPERATURES IN CELSIUS
  WCI - WIND CHILL INDEX
   HX - HEAT INDEX
  VSB - VISIBILITY
$$



USA.gov is the U.S. government's official web portal to all federal, state and local government web resources and services.